Regional Weather Roundup
Issued by NWS

Home | Current Version | Previous Version | Text Only | Print | Product List | Glossary Off
Versions: 1 2 3 4 5 6 7 8 9 10 11 12 13 14 15 16 17 18 19 20 21 22 23 24 25 26 27 28 29 30 31 32 33 34 35 36 37 38 39 40 41 42 43 44 45 46 47 48 49 50

000
ASUS43 KLOT 051512
RWRIL

ILLINOIS REGIONAL WEATHER ROUNDUP
NATIONAL WEATHER SERVICE CHICAGO/ROMEOVILLE IL
900 AM CST MON DEC 05 2016

NOTE: "FAIR" INDICATES FEW OR NO CLOUDS BELOW 12,000 FEET WITH NO
SIGNIFICANT WEATHER AND/OR OBSTRUCTIONS TO VISIBILITY.

* THESE STATIONS ARE NOT UNDER NWS QUALITY CONTROL. THEY ALSO MAY NOT
  REPORT WEATHER SUCH AS PRECIPITATION OR FOG.

ILZ001-002-007-009-015-016-024-051600-
NORTHWEST ILLINOIS

CITY           SKY/WX    TMP DP  RH WIND       PRES   REMARKS
MOLINE         FOG       32  30  92 SE8       29.98S VSB 1/2 WCI  25
STERLING*      FOG       31  30  96 VRB5      30.01R VSB 1/4 WCI  26
SAVANNA*       FOG       32  32  99 S12       29.98S VSB 3/4 WCI  23
$$

ILZ003-004-008-010-011-017-018-051600-
NORTH CENTRAL ILLINOIS

CITY           SKY/WX    TMP DP  RH WIND       PRES   REMARKS
ROCKFORD       FOG       31  30  96 S12       30.01R VSB 1/4 WCI  22
FREEPORT*      FOG       31  30  98 S12       29.99S VSB<1/4 WCI  21
ROCHELLE*      FOG       30  30 100 S10       30.01R VSB 1/4 WCI  21
DE KALB*       FOG       31  30  98 S10       30.00S VSB<1/4 WCI  22
$$

ILZ005-006-012>014-019>023-051600-
NORTHEAST ILLINOIS

CITY           SKY/WX    TMP DP  RH WIND       PRES   REMARKS
CHICAGO-OHARE  CLOUDY    32  31  96 S8        30.02R FOG     WCI  25
CHICAGO-MIDWAY CLOUDY    33  30  88 S10       30.04R FOG     WCI  25
AURORA         CLOUDY    32  30  92 S10       30.03R FOG     WCI  24
LANSING*       CLOUDY    32  32 100 W6        30.05R WCI  26
JOLIET*        CLOUDY    33  32  96 S6        30.04S FOG     WCI  28
WAUKEGAN       CLOUDY    32  31  96 SW8       30.00R FOG     WCI  25
DUPAGE AIRPORT CLOUDY    32  30  92 S10       30.01R FOG     WCI  24
KANKAKEE*      CLOUDY    32  31  94 CALM      30.07R
WHEELING       CLOUDY    33  31  92 SW8       30.03R FOG     WCI  26
MORRIS*        CLOUDY    32  31  95 S9        30.03S FOG     WCI  24
ROMEOVILLE*    CLOUDY    32  32 100 CALM      30.04R FOG
NORTHERLY ISL    N/A     33  30  89 S7          N/A  WCI  27
$$

LMZ740>746-051600-
SOUTHERN LAKE MICHIGAN

STATION/POSITION SKY/WX   TEMP    WIND        PRES    VSBY  WAVE
                          AIR SEA DIR/SP/G                  HT/PER
                          (F)     (DEG/KT/KT) (MB)    (MI)  (FT/S)
HARRISON CRIB              34     200/ 14/ 16   N/A
BURNHAM HARBOR             33     170/  6/ 11   N/A
CALUMET HARBOR             32     180/  7/ 10 1016.7R
BURNS HARBOR               34     210/  9/ 12 1017.9R
$$

ILZ025>027-034>036-040-047-049-050-058-095>099-051600-
WEST-CENTRAL ILLINOIS

CITY           SKY/WX    TMP DP  RH WIND       PRES   REMARKS
QUINCY         FOG       32  32 100 S7        30.00R VSB<1/4 WCI  26
GALESBURG*     FOG       32  32 100 S10       29.99F VSB 1/4 WCI  24
MACOMB*        CLOUDY    33  33 100 S16       30.02S FOG     WCI  22
JACKSONVILLE*  CLOUDY    34  33  95 SE3       30.04S FOG
PITTSFIELD*    FOG       32  32 100 SE7       30.03S VSB<1/4 WCI  26
$$

ILZ028>032-037-038-041>044-048-051>054-059>061-051600-
CENTRAL ILLINOIS

CITY           SKY/WX    TMP DP  RH WIND       PRES   REMARKS
PONTIAC        CLOUDY    32  32 100 S13       30.06R FOG     WCI  22
BLOOMINGTON    FOG       32  31  96 S14       30.05R VSB 1/2 WCI  22
DECATUR        CLOUDY    34  32  92 S8        30.07S WCI  27
PEORIA         CLOUDY    34  33  96 S13       30.04R FOG     WCI  25
LACON*         CLOUDY    32  32 100 S6        30.03R FOG     WCI  26
LINCOLN*       CLOUDY    35  34  97 S7        30.06S WCI  29
SPRINGFIELD    CLOUDY    36  35  96 S6        30.06R FOG     WCI  31
TAYLORVILLE    CLOUDY    36  34  93 S7        30.07S WCI  30
$$

ILZ033-039-045-046-055>057-062-063-051600-
EAST-CENTRAL ILLINOIS

CITY           SKY/WX    TMP DP  RH WIND       PRES   REMARKS
CHAMPAIGN      CLOUDY    34  30  85 S12       30.07S WCI  25
RANTOUL*       CLOUDY    34  32  93 S7        30.07R WCI  28
MATTOON        CLOUDY    34  30  85 S7        30.07S WCI  28
PARIS*         CLOUDY    35  32  90 SE9       30.10S WCI  27
$$

ILZ079-100>102-051600-
SOUTHWEST ILLINOIS

CITY           SKY/WX    TMP DP  RH WIND       PRES   REMARKS
ALTON          CLOUDY    37  34  87 SE3       30.05F
CAHOKIA*       CLOUDY    40  35  83 SE5       30.06R
SPARTA*        MOSUNNY   38  34  87 E7        30.07S WCI  32
$$

ILZ064>066-069>071-074>076-080>082-084>086-088>090-092>094-051600-
SOUTH-CENTRAL ILLINOIS

CITY           SKY/WX    TMP DP  RH WIND       PRES   REMARKS
CARBONDALE     MOSUNNY   37  34  89 E9        30.07R WCI  30
CAIRO*         MOSUNNY   39  36  87 E10       30.07R WCI  32
EFFINGHAM*     CLOUDY    36  35  96 SE3       30.10R
MARION         MOSUNNY   37  36  93 NE9       30.08F WCI  31
CENTRALIA*     CLOUDY    37  34  88 E6        30.07S FOG     WCI  33
SALEM*         CLOUDY    37  33  84 SE6       30.07F WCI  33
METROPOLIS*    PTSUNNY   40  35  82 E5        30.09R
$$

ILZ067-068-072-073-078-083-087-091-051600-
SOUTHEAST ILLINOIS

CITY           SKY/WX    TMP DP  RH WIND       PRES   REMARKS
LAWRENCEVILLE  CLOUDY    37  31  78 E6        30.12R WCI  32
FLORA*         CLOUDY    37  33  85 E9        30.10R WCI  31
FAIRFIELD*     CLOUDY    37  33  86 CALM      30.09R
HARRISBURG*    CLOUDY    37  34  88 E8        30.09S WCI  31
ROBINSON*      CLOUDY    35  32  88 S6        30.12S WCI  30
CARMI*         CLOUDY    36  33  88 NE6       30.10R WCI  32
$$

ABBREVIATIONS USED IN REMARKS
   TC - TEMPERATURE IN CELSIUS
  WCI - WIND CHILL INDEX
   HX - HEAT INDEX
  VSB - VISIBILITY
$$




USA.gov is the U.S. government's official web portal to all federal, state and local government web resources and services.